Saint George, Bermuda

12:00 PM ADT on June 25, 2018 (GMT -0300)
Saint George

Weather History for 78016 - April, 2006

Change the Weather History Date:

Saturday, April 8, 2006

  Actual Average Record
Temperature  
Mean Temperature 66 °F -  
Max Temperature 70 °F 69 °F - ()
Min Temperature 63 °F 61 °F - ()
Cooling Degree Days 2    
Growing Degree Days 16 (Base 50)    
Moisture  
Dew Point 59 °F    
Average Humidity 73    
Maximum Humidity 83    
Minimum Humidity 56    
Precipitation  
Precipitation 0.00 in - - ()
Sea Level Pressure  
Sea Level Pressure 30.22 in    
Wind  
Wind Speed 14 mph ()    
Max Wind Speed 21 mph    
Max Gust Speed 25 mph    
Visibility 9.0 miles    
Events      
T = Trace of Precipitation, MM = Missing Value Source: Averaged Metar Reports

Daily Weather History Graph

Daily Weather History Graph

Search for Another Location

Airport or City:

Astronomy

Apr. 08, 2006 Rise Set
Actual Time 6:58 AM ADT 7:43 PM ADT
Civil Twilight 6:33 AM ADT 8:08 PM ADT
Nautical Twilight 6:03 AM ADT 8:37 PM ADT
Astronomical Twilight 5:33 AM ADT 9:07 PM ADT
Moon 3:21 PM ADT (4/8) 4:33 AM ADT (4/8)
Length of Visible Light 13h 35m
Length of Day
12h 45m
Waxing Gibbous, 78% of the Moon is Illuminated
Apr 8
Waxing Gibbous
Apr 13
Full
Apr 21
Last Quarter
Apr 27
New
May 5
First Quarter

Hourly Weather History & Observations

Time (ADT) Temp. Dew Point Humidity Pressure Visibility Wind Dir Wind Speed Gust Speed Precip Events Conditions
12:00 AM 66 °F 54 °F 56% 30.23 in 9 mi South 12.7 mph - -   Scattered Clouds
12:55 AM 66.2 °F 55.4 °F 68% 30.22 in 9.0 mi South 13.8 mph - N/A   Scattered Clouds
1:55 AM 66.2 °F 55.4 °F 68% 30.22 in 9.0 mi South 15.0 mph - N/A   Scattered Clouds
2:55 AM 66.2 °F 55.4 °F 68% 30.20 in 9.0 mi South 16.1 mph - N/A   Mostly Cloudy
3:00 AM 65 °F 56 °F 65% 30.20 in 9 mi South 15.0 mph - -   Scattered Clouds
3:55 AM 66.2 °F 57.2 °F 73% 30.20 in 9.0 mi South 16.1 mph - N/A   Mostly Cloudy
4:55 AM 66.2 °F 55.4 °F 68% 30.20 in 9.0 mi SSW 15.0 mph - N/A   Scattered Clouds
5:55 AM 66.2 °F 57.2 °F 73% 30.20 in 9.0 mi South 15.0 mph - N/A   Scattered Clouds
6:00 AM 65 °F 57 °F 69% 30.20 in 9 mi South 15.0 mph - -   Scattered Clouds
6:55 AM 66.2 °F 57.2 °F 73% 30.22 in 9.0 mi South 12.7 mph - N/A   Mostly Cloudy
7:55 AM 66.2 °F 59.0 °F 78% 30.24 in 9.0 mi South 12.7 mph - N/A   Mostly Cloudy
8:55 AM 66.2 °F 57.2 °F 73% 30.25 in 9.0 mi South 11.5 mph - N/A   Mostly Cloudy
9:00 AM 67 °F 58 °F 65% 30.25 in 9 mi South 13.8 mph - -   Scattered Clouds
9:55 AM 68.0 °F 59.0 °F 73% 30.24 in 9.0 mi South 15.0 mph - N/A   Mostly Cloudy
10:55 AM 68.0 °F 60.8 °F 78% 30.24 in 9.0 mi South 17.3 mph 23.0 mph N/A   Mostly Cloudy
11:55 AM 69.8 °F 60.8 °F 73% 30.23 in 9.0 mi South 18.4 mph - N/A   Mostly Cloudy
12:00 PM 69 °F 61 °F 69% 30.23 in 9 mi South 18.4 mph - -   Scattered Clouds
12:55 PM 69.8 °F 59.0 °F 68% 30.24 in 9.0 mi South 16.1 mph - N/A   Mostly Cloudy
1:55 PM 69.8 °F 60.8 °F 73% 30.24 in 9.0 mi South 20.7 mph - N/A   Mostly Cloudy
2:55 PM 69.8 °F 60.8 °F 73% 30.22 in 9.0 mi South 18.4 mph 25.3 mph N/A   Scattered Clouds
3:00 PM 70 °F 61 °F 66% 30.22 in 9 mi South 19.6 mph - -   Scattered Clouds
3:55 PM 69.8 °F 60.8 °F 73% 30.21 in 9.0 mi South 17.3 mph - N/A   Scattered Clouds
4:55 PM 69.8 °F 59.0 °F 68% 30.20 in 9.0 mi South 18.4 mph - N/A   Partly Cloudy
5:55 PM 68.0 °F 60.8 °F 78% 30.20 in 9.0 mi South 16.1 mph - N/A   Partly Cloudy
6:00 PM 69 °F 61 °F 69% 30.20 in 9 mi South 15.0 mph - -   Scattered Clouds
6:55 PM 68.0 °F 60.8 °F 78% 30.21 in 9.0 mi South 15.0 mph - N/A   Partly Cloudy
7:55 PM 66.2 °F 60.8 °F 83% 30.22 in 9.0 mi South 12.7 mph - N/A   Partly Cloudy
8:55 PM 66.2 °F 60.8 °F 83% 30.22 in 9.0 mi South 13.8 mph - N/A   Partly Cloudy
9:00 PM 67 °F 60 °F 73% 30.22 in 9 mi South 13.8 mph - -   Scattered Clouds
9:55 PM 66.2 °F 60.8 °F 83% 30.23 in 9.0 mi South 12.7 mph - N/A   Partly Cloudy
10:55 PM 66.2 °F 60.8 °F 83% 30.22 in 9.0 mi South 13.8 mph - N/A   Mostly Cloudy
11:55 PM 66.2 °F 60.8 °F 83% 30.20 in 9.0 mi South 15.0 mph - N/A   Partly Cloudy